Chariton, IA

6:39 PM CDT on August 24, 2016 (GMT -0500)
Chariton Municipal

Weather History for KCNC - March, 2013

Change the Weather History Date:

Monday, March 11, 2013

  Actual Average Record
Temperature  
Mean Temperature 28 °F -  
Max Temperature 32 °F 49 °F 80 °F (1972)
Min Temperature 24 °F 27 °F 3 °F (1998)
Degree Days  
Heating Degree Days 37    
Moisture  
Dew Point 25 °F    
Average Humidity 88    
Maximum Humidity 100    
Minimum Humidity 80    
Precipitation  
Precipitation 0.00 in - - ()
Sea Level Pressure  
Sea Level Pressure 29.81 in    
Wind  
Wind Speed - (North)    
Max Wind Speed -    
Max Gust Speed -    
Visibility 9 miles    
Events Snow    
Averages and records for this station are not official NWS values.
T = Trace of Precipitation, MM = Missing Value Source: NWS Daily Summary

Daily Weather History Graph

Daily Weather History Graph

Search for Another Location

Airport or City:

Trip Planner

Search our weather history database for the weather conditions in past years. The results will help you decide how hot, cold, wet, or windy it might be!

Date:

Astronomy

Mar. 11, 2013 Rise Set
Actual Time 7:31 AM CDT 7:16 PM CDT
Civil Twilight 7:03 AM CDT 7:43 PM CDT
Nautical Twilight 6:32 AM CDT 8:15 PM CDT
Astronomical Twilight 5:59 AM CDT 8:47 PM CDT
Moon 7:05 AM CDT (3/11) 7:29 PM CDT (3/11)
Length of Visible Light 12h 39m
Length of Day
11h 44m
Waning Crescent, 0% of the Moon is Illuminated
Mar 11
Waning Crescent
Mar 11
New
Mar 19
First Quarter
Mar 27
Full
Apr 2
Last Quarter

Hourly Weather History & Observations

Time (CDT) Temp. Dew Point Humidity Pressure Visibility Wind Dir Wind Speed Gust Speed Precip Events Conditions
12:15 AM 32.0 °F 30.2 °F 93% 29.73 in 0.8 mi North - - N/A Snow Light Snow
12:35 AM 32.0 °F 30.2 °F 93% 29.73 in 1.2 mi North - - N/A Snow Light Snow
12:55 AM 30.2 °F 30.2 °F 100% 29.73 in 2.5 mi North - - N/A Snow Light Snow
1:15 AM 30.2 °F 28.4 °F 93% 29.73 in 2.0 mi North - - N/A Snow Light Snow
1:35 AM 30.2 °F 28.4 °F 93% 29.73 in 1.5 mi North - - N/A Snow Light Snow
1:55 AM 30.2 °F 28.4 °F 93% 29.73 in 3.0 mi North - - N/A Snow Light Snow
2:15 AM 28.4 °F 28.4 °F 100% 29.73 in 3.0 mi North - - N/A Snow Light Snow
2:35 AM 28.4 °F 28.4 °F 100% 29.73 in 3.0 mi North - - N/A Snow Light Snow
2:55 AM 28.4 °F 26.6 °F 93% 29.73 in 5.0 mi North - - N/A Snow Light Snow
3:15 AM 28.4 °F 26.6 °F 93% 29.72 in 10.0 mi North - - N/A   Overcast
3:35 AM 28.4 °F 26.6 °F 93% 29.72 in 10.0 mi North - - N/A   Overcast
3:55 AM 28.4 °F 26.6 °F 93% 29.71 in 10.0 mi North - - N/A   Overcast
4:15 AM 28.4 °F 26.6 °F 93% 29.71 in 10.0 mi North - - N/A   Overcast
4:35 AM 28.4 °F 26.6 °F 93% 29.71 in 10.0 mi North - - N/A   Overcast
4:55 AM 28.4 °F 26.6 °F 93% 29.71 in 7.0 mi North - - N/A   Overcast
5:15 AM 28.4 °F 26.6 °F 93% 29.71 in 10.0 mi North - - N/A   Overcast
5:35 AM 28.4 °F 26.6 °F 93% 29.72 in 10.0 mi North - - N/A   Overcast
5:55 AM 28.4 °F 26.6 °F 93% 29.73 in 7.0 mi North - - N/A   Overcast
6:15 AM 28.4 °F 26.6 °F 93% 29.74 in 10.0 mi North - - N/A   Overcast
6:35 AM 28.4 °F 24.8 °F 86% 29.75 in 10.0 mi North - - N/A   Overcast
6:55 AM 26.6 °F 24.8 °F 93% 29.75 in 10.0 mi North - - N/A   Overcast
7:15 AM 26.6 °F 24.8 °F 93% 29.75 in 7.0 mi North - - N/A   Overcast
7:35 AM 26.6 °F 24.8 °F 93% 29.76 in 5.0 mi North - - N/A   Overcast
7:55 AM 26.6 °F 24.8 °F 93% 29.77 in 7.0 mi North - - N/A   Overcast
8:15 AM 26.6 °F 24.8 °F 93% 29.78 in 7.0 mi North - - N/A   Overcast
8:35 AM 26.6 °F 24.8 °F 93% 29.78 in 5.0 mi North - - N/A   Overcast
8:55 AM 26.6 °F 24.8 °F 93% 29.79 in 7.0 mi North - - N/A   Overcast
9:15 AM 26.6 °F 24.8 °F 93% 29.79 in 10.0 mi North - - N/A   Overcast
9:35 AM 26.6 °F 24.8 °F 93% 29.79 in 10.0 mi North - - N/A   Overcast
9:55 AM 26.6 °F 24.8 °F 93% 29.79 in 10.0 mi North - - N/A   Overcast
10:15 AM 26.6 °F 24.8 °F 93% 29.78 in 10.0 mi North - - N/A   Overcast
10:35 AM 28.4 °F 24.8 °F 86% 29.80 in 10.0 mi North - - N/A   Overcast
10:55 AM 26.6 °F 24.8 °F 93% 29.80 in 10.0 mi North - - N/A   Overcast
11:15 AM 28.4 °F 24.8 °F 86% 29.80 in 10.0 mi North - - N/A   Overcast
11:35 AM 28.4 °F 24.8 °F 86% 29.80 in 10.0 mi North - - N/A   Overcast
11:55 AM 28.4 °F 24.8 °F 86% 29.81 in 10.0 mi North - - N/A   Overcast
12:15 PM 28.4 °F 24.8 °F 86% 29.81 in 10.0 mi North - - N/A   Overcast
12:35 PM 28.4 °F 24.8 °F 86% 29.82 in 10.0 mi North - - N/A   Overcast
12:55 PM 28.4 °F 24.8 °F 86% 29.82 in 10.0 mi North - - N/A   Overcast
1:15 PM 28.4 °F 24.8 °F 86% 29.82 in 10.0 mi North - - N/A   Overcast
1:35 PM 28.4 °F 24.8 °F 86% 29.82 in 10.0 mi North - - N/A   Overcast
1:55 PM 28.4 °F 24.8 °F 86% 29.82 in 10.0 mi North - - N/A   Overcast
2:15 PM 28.4 °F 24.8 °F 86% 29.82 in 10.0 mi North - - N/A   Overcast
2:35 PM 28.4 °F 24.8 °F 86% 29.82 in 10.0 mi North - - N/A   Overcast
2:55 PM 28.4 °F 24.8 °F 86% 29.82 in 10.0 mi North - - N/A   Overcast
3:15 PM 28.4 °F 24.8 °F 86% 29.82 in 10.0 mi North - - N/A   Overcast
3:35 PM 28.4 °F 24.8 °F 86% 29.82 in 10.0 mi North - - N/A   Overcast
3:55 PM 30.2 °F 24.8 °F 80% 29.82 in 10.0 mi North - - N/A   Overcast
4:15 PM 30.2 °F 24.8 °F 80% 29.83 in 10.0 mi North - - N/A   Mostly Cloudy
4:35 PM 28.4 °F 24.8 °F 86% 29.83 in 10.0 mi North - - N/A   Overcast
4:55 PM 28.4 °F 24.8 °F 86% 29.84 in 10.0 mi North - - N/A   Overcast
5:15 PM 28.4 °F 24.8 °F 86% 29.85 in 10.0 mi North - - N/A   Overcast
5:35 PM 28.4 °F 23.0 °F 80% 29.85 in 10.0 mi North - - N/A   Overcast
6:15 PM 28.4 °F 23.0 °F 80% 29.87 in 10.0 mi North - - N/A   Overcast
6:35 PM 26.6 °F 21.2 °F 80% 29.88 in 10.0 mi North - - N/A   Overcast
6:55 PM 26.6 °F 21.2 °F 80% 29.89 in 10.0 mi North - - N/A   Overcast
7:15 PM 26.6 °F 21.2 °F 80% 29.89 in 10.0 mi North - - N/A   Mostly Cloudy
7:35 PM 26.6 °F 21.2 °F 80% 29.90 in 10.0 mi North - - N/A   Scattered Clouds
7:55 PM 24.8 °F 21.2 °F 86% 29.92 in 10.0 mi North - - N/A   Scattered Clouds
8:15 PM 24.8 °F 19.4 °F 80% 29.93 in 10.0 mi North - - N/A   Scattered Clouds
8:35 PM 24.8 °F 19.4 °F 80% 29.94 in 10.0 mi North - - N/A   Clear
8:55 PM 24.8 °F 19.4 °F 80% 29.95 in 10.0 mi North - - N/A   Mostly Cloudy
9:15 PM 24.8 °F 21.2 °F 86% 29.93 in 10.0 mi North - - N/A   Overcast
9:35 PM 24.8 °F 21.2 °F 86% 29.93 in 10.0 mi North - - N/A   Overcast
9:55 PM 24.8 °F 21.2 °F 86% 29.93 in 10.0 mi North - - N/A   Overcast
10:15 PM 26.6 °F 21.2 °F 80% 29.94 in 10.0 mi North - - N/A   Overcast
10:35 PM 24.8 °F 21.2 °F 86% 29.95 in 10.0 mi North - - N/A   Scattered Clouds
10:55 PM 24.8 °F 21.2 °F 86% 29.96 in 10.0 mi North - - N/A   Clear
11:15 PM 24.8 °F 21.2 °F 86% 29.96 in 10.0 mi North - - N/A   Clear
11:35 PM 24.8 °F 21.2 °F 86% 29.96 in 10.0 mi North - - N/A   Clear
11:55 PM 24.8 °F 21.2 °F 86% 29.96 in 10.0 mi North - - N/A   Clear